Location: WHS+Essen
(51.3947°N, 6.9794°E)
Time: 23:42:50
(UTC+01:00)

ISS - Visible Passes

Search period start: 19 March 2019 00:00
Search period end: 29 March 2019 00:00
Orbit: 406 x 411 km, 51.6° (Epoch: 20 March)

Date Brightness Start Highest point End Pass type
(mag) Time Alt. Az. Time Alt. Az. Time Alt. Az.
21 Mar -1.4 20:28:25 10° S 20:28:54 12° S 20:28:54 12° S visible
22 Mar -1.7 19:38:37 10° SSE 19:40:01 12° SE 19:40:47 11° ESE visible
22 Mar -1.4 21:12:47 10° SW 21:13:34 16° SW 21:13:34 16° SW visible
23 Mar -3.0 20:22:02 10° SW 20:25:02 33° SSE 20:25:14 32° SE visible
24 Mar -2.4 19:31:30 10° SSW 19:34:08 22° SE 19:36:42 10° E visible
24 Mar -3.0 21:07:04 10° WSW 21:09:28 44° SW 21:09:28 44° SW visible
25 Mar -3.7 20:16:06 10° WSW 20:19:21 55° SSE 20:20:47 28° E visible
25 Mar -1.2 21:52:33 10° W 21:53:31 18° W 21:53:31 18° W visible
26 Mar -3.1 19:25:15 10° SW 19:28:21 39° SSE 19:31:28 10° E visible
26 Mar -3.9 21:01:27 10° W 21:04:43 86° WNW 21:04:43 86° WNW visible
27 Mar -3.9 20:10:23 10° WSW 20:13:41 80° S 20:15:48 21° E visible
27 Mar -1.7 21:46:58 10° W 21:48:32 26° W 21:48:32 26° W visible
28 Mar -3.9 20:55:52 10° W 20:59:11 84° N 20:59:33 68° ENE visible
